Lander, WY

11:12 AM MDT on August 20, 2017 (GMT -0600)
Hunt

Weather History for KLND - June, 2013

Change the Weather History Date:

Wednesday, June 26, 2013

  Actual Average Record
Temperature  
Mean Temperature 73 °F 67 °F  
Max Temperature 92 °F 82 °F 99 °F (1990)
Min Temperature 53 °F 51 °F 34 °F (1904)
Degree Days  
Heating Degree Days 0 2  
Month to date heating degree days 54 119  
Since 1 June heating degree days 54 119  
Since 1 July heating degree days 7428 7741  
Cooling Degree Days 8 4  
Month to date cooling degree days 69 49  
Year to date cooling degree days 78 54  
Since 1 June cooling degree days 69 49  
Growing Degree Days 22 (Base 50)    
Moisture  
Dew Point 40 °F    
Average Humidity 36    
Maximum Humidity 55    
Minimum Humidity 16    
Precipitation  
Precipitation 0.00 in 0.03 in 0.58 in (1952)
Month to date precipitation 0.05 1.18  
Year to date precipitation 7.57 7.40  
Snow  
Snow 0.00 in 0.00 in - ()
Month to date snowfall 0.0 0.1  
Since 1 June snowfall 0.0 0.1  
Since 1 July snowfall 111.1 91.4  
Snow Depth 0.00 in    
Sea Level Pressure  
Sea Level Pressure 29.88 in    
Wind  
Wind Speed 7 mph (West)    
Max Wind Speed 22 mph    
Max Gust Speed 30 mph    
Visibility 10 miles    
Events      
T = Trace of Precipitation, MM = Missing Value Source: NWS Daily Summary

Daily Weather History Graph

Daily Weather History Graph

Search for Another Location

Airport or City:

Trip Planner

Search our weather history database for the weather conditions in past years. The results will help you decide how hot, cold, wet, or windy it might be!

Date:

Astronomy

Jun. 26, 2013 Rise Set
Actual Time 5:38 AM MDT 8:57 PM MDT
Civil Twilight 5:02 AM MDT 9:32 PM MDT
Nautical Twilight 4:17 AM MDT 10:18 PM MDT
Astronomical Twilight 3:21 AM MDT 11:14 PM MDT
Moon 11:15 PM MDT (6/26) 9:39 AM MDT (6/26)
Length of Visible Light 16h 29m
Length of Day
15h 19m
Waning Gibbous, 85% of the Moon is Illuminated
Jun 26
Waning Gibbous
Jun 29
Last Quarter
Jul 8
New
Jul 15
First Quarter
Jul 22
Full

Hourly Weather History & Observations

Time (MDT) Temp. Dew Point Humidity Pressure Visibility Wind Dir Wind Speed Gust Speed Precip Events Conditions
12:53 AM 62.1 °F 36.0 °F 38% 29.82 in 10.0 mi East 5.8 mph - N/A   Clear
1:53 AM 64.0 °F 39.9 °F 41% 29.83 in 10.0 mi Calm Calm - N/A   Clear
2:53 AM 61.0 °F 37.9 °F 42% 29.83 in 10.0 mi Calm Calm - N/A   Clear
3:53 AM 59.0 °F 39.0 °F 48% 29.82 in 10.0 mi SW 4.6 mph - N/A   Clear
4:53 AM 57.0 °F 39.0 °F 51% 29.83 in 10.0 mi Calm Calm - N/A   Clear
5:53 AM 55.0 °F 39.0 °F 55% 29.86 in 10.0 mi NW 9.2 mph - N/A   Clear
7:53 AM 59.0 °F 42.1 °F 53% 29.89 in 10.0 mi Calm Calm - N/A   Clear
8:53 AM 66.0 °F 44.1 °F 45% 29.91 in 10.0 mi SE 3.5 mph - N/A   Clear
9:53 AM 73.0 °F 42.1 °F 33% 29.90 in 10.0 mi Variable 3.5 mph - N/A   Clear
10:53 AM 78.1 °F 43.0 °F 29% 29.89 in 10.0 mi NNW 4.6 mph - N/A   Partly Cloudy
11:53 AM 78.1 °F 43.0 °F 29% 29.88 in 10.0 mi North 4.6 mph - N/A   Scattered Clouds
12:53 PM 82.9 °F 42.1 °F 24% 29.86 in 10.0 mi NNE 4.6 mph - N/A   Mostly Cloudy
1:53 PM 88.0 °F 37.9 °F 17% 29.84 in 10.0 mi West 16.1 mph 25.3 mph N/A   Mostly Cloudy
2:53 PM 89.1 °F 39.0 °F 17% 29.83 in 10.0 mi WNW 15.0 mph 24.2 mph N/A   Scattered Clouds
3:53 PM 90.0 °F 37.0 °F 15% 29.83 in 10.0 mi WSW 10.4 mph 20.7 mph N/A   Clear
4:53 PM 90.0 °F 37.9 °F 16% 29.83 in 10.0 mi WNW 15.0 mph 21.9 mph N/A   Clear
5:03 PM 89.6 °F 37.4 °F 16% 30.05 in 10.0 mi WNW 11.5 mph 17.3 mph N/A   Clear
5:53 PM 89.1 °F 37.9 °F 16% 29.85 in 10.0 mi NW 11.5 mph 18.4 mph N/A   Clear
6:53 PM 87.1 °F 37.9 °F 18% 29.85 in 10.0 mi West 8.1 mph - N/A   Clear
7:53 PM 84.0 °F 39.0 °F 20% 29.88 in 10.0 mi WNW 11.5 mph - N/A   Clear
8:53 PM 75.9 °F 42.1 °F 30% 29.92 in 10.0 mi WSW 9.2 mph - N/A   Clear
9:53 PM 73.9 °F 39.9 °F 29% 29.94 in 10.0 mi WSW 11.5 mph - N/A   Clear
10:53 PM 71.1 °F 39.9 °F 32% 29.96 in 10.0 mi WSW 12.7 mph - N/A   Clear
11:53 PM 66.0 °F 39.9 °F 38% 29.99 in 10.0 mi South 4.6 mph - N/A   Clear